sat.trackr.live / text

‹ back to catalog

STARLINK-5339

NORAD 56510 · 2023-065H

PAYLOAD ACTIVE UNKNOWN

§ Identity

Operator
Country
US
Launch date
2023-05-14
Launch site
AFETR
Launch vehicle
Mass (kg)
RCS (m²)

Purposes: comms

External: N2YO · Heavens-Above · Gunter

§ Orbital elements

Epoch: 2026-09-20T05:08:19.623264Z

Period
94.27 min
Inclination
43.0019°
Eccentricity
0.0001537
Mean motion
15.27573733 rev/d
Perigee alt
482.0 km
Apogee alt
484.1 km
Semi-major
6,861.2 km
B*
-1.2601e-5
RAAN
193.5838°
Arg perigee
270.5884°
Mean anomaly
89.4792°
Rev number
18,635

§ Raw data

STARLINK-53391 56510U 23065H   26263.21411601 -.00000609  00000+0 -12601-4 0  99982 56510  43.0019 193.5838 0001537 270.5884  89.4792 15.27573733186358

JSON: /api/v1/satellites/56510 · /tle

For live sub-satellite position, see the globe view (requires WebGL).

§ Visibility from observer

Set your observer location to see the next 7 days of passes ≥ 10°. The values pass through the URL so the page stays shareable.

No JS? Fill the form by hand. The geolocation button needs JavaScript.